Temperature
15 15 14 14 13 13 13 13 13 13 13 13 13 13 12 12 11 10 10 9 9 8 8 8 8 8 9 9 9 9 9 10 10 10 10 10 10 10 10 10 10 10 10
15 14 14 13 13 13 12 12 12 12 12 13 12 12 12 11 11 10 9 9 9 8 8 8 8 8 8 8 8 8 9 9 9 9 9 9 9 10 10 10 10 10 10
14 14 13 13 13 12 12 12 12 12 12 12 12 12 11 11 10 10 9 9 8 8 8 8 8 8 8 8 8 7 8 8 8 8 8 8 8 8 8 8 8 8 8
13 13 13 13 12 12 12 12 12 12 12 12 12 11 11 11 10 9 9 8 8 8 7 7 7 7 7 7 7 7 7 7 7 7 7 7 7 7 7 7 7 6 7
13 13 13 12 12 11 11 12 12 12 12 12 12 11 10 10 9 9 8 8 7 7 7 7 7 7 7 6 6 6 6 6 6 6 6 6 6 5 5 5 5 5 5
13 13 12 12 12 11 11 12 12 12 12 12 11 11 10 9 9 8 8 7 7 7 6 6 6 6 6 6 5 5 5 5 4 4 4 4 4 4 4 4 4 4 4
13 13 12 12 12 11 11 12 12 12 11 11 11 10 10 9 8 8 7 7 6 6 6 5 5 5 5 5 5 5 5 4 4 3 3 2 2 2 2 2 2 2 2
14 13 12 12 12 11 11 11 11 11 11 11 11 10 10 9 8 7 7 7 6 5 5 5 5 4 4 4 4 4 4 4 3 2 2 1 1 1 1 1 1 1 1
14 13 13 12 12 12 11 11 11 11 11 11 11 10 10 10 8 7 7 6 6 5 5 4 4 4 4 4 4 3 3 3 2 1 0 -0 -0 -0 -0 -0 0 0 0
14 14 13 12 12 12 11 11 11 11 11 11 10 10 10 9 9 8 7 6 6 5 5 4 4 4 4 3 3 3 2 1 -0 -1 -1 -1 -1 -1 -1 -1 -1 -0 -0
14 14 13 12 12 11 11 11 11 11 10 10 10 9 9 8 8 7 7 6 5 5 5 4 4 4 3 3 2 2 1 -0 -1 -1 -2 -2 -2 -2 -2 -2 -1 -1 -1
14 13 13 12 12 11 11 11 10 10 10 10 9 9 8 8 7 6 5 5 4 5 5 4 4 3 2 2 1 1 -0 -1 -2 -2 -3 -3 -3 -3 -3 -3 -2 -2 -2
14 13 12 12 11 11 10 10 10 10 9 9 8 8 7 7 6 5 4 3 3 3 4 4 2 1 1 0 -0 -1 -1 -2 -2 -3 -4 -4 -4 -4 -4 -4 -4 -4 -3
14 14 12 12 11 10 10 9 9 9 8 8 8 7 6 6 5 4 3 2 1 1 2 2 2 1 -0 -1 -1 -2 -2 -2 -2 -3 -4 -5 -5 -5 -5 -5 -5 -4 -4
13 12 12 11 10 9 9 8 8 8 8 7 7 6 5 5 4 3 2 1 0 -2 -2 0 0 -0 -2 -2 -2 -3 -3 -3 -4 -4 -4 -5 -5 -6 -6 -6 -5 -5 -5
12 11 11 10 9 8 8 7 7 7 7 6 6 5 5 4 3 2 2 1 -0 -2 -3 -2 -2 -2 -2 -2 -3 -4 -4 -4 -4 -4 -5 -6 -6 -6 -6 -6 -6 -6 -6
11 10 10 8 7 7 7 6 6 6 6 5 5 4 4 3 2 2 1 0 -1 -2 -3 -3 -3 -3 -3 -3 -3 -4 -4 -5 -5 -5 -5 -6 -6 -6 -6 -6 -6 -6 -6
10 9 8 7 6 6 6 6 5 5 5 4 4 3 3 2 1 1 0 -1 -1 -2 -4 -4 -4 -4 -4 -4 -5 -5 -5 -6 -6 -5 -5 -6 -6 -6 -6 -6 -6 -6 -6
9 7 6 5 5 5 5 5 4 4 4 3 3 2 2 1 1 0 -1 -1 -2 -3 -5 -6 -6 -6 -5 -5 -6 -6 -6 -6 -6 -5 -5 -5 -5 -5 -6 -6 -6 -6 -6
7 5 4 4 4 4 4 4 3 3 3 2 2 1 1 0 -0 -1 -2 -3 -4 -5 -6 -7 -7 -7 -7 -6 -7 -7 -7 -6 -6 -5 -5 -6 -6 -6 -6 -5 -6 -6 -6
4 4 3 3 3 3 3 2 2 2 2 1 1 0 0 -0 -1 -2 -4 -5 -6 -6 -7 -7 -8 -8 -8 -8 -8 -8 -8 -7 -6 -6 -5 -6 -6 -6 -5 -5 -5 -5 -5
3 2 2 2 2 1 1 1 1 1 1 0 0 -0 -1 -1 -2 -3 -5 -6 -6 -7 -8 -8 -9 -9 -9 -8 -8 -8 -8 -9 -9 -7 -7 -7 -7 -6 -6 -6 -6 -6 -6
1 1 1 1 1 1 1 1 0 -0 -0 -0 -1 -1 -1 -2 -3 -4 -5 -6 -7 -7 -8 -9 -9 -9 -9 -8 -9 -9 -9 -9 -9 -8 -8 -8 -6 -6 -6 -6 -6 -6 -6
0 1 1 1 0 0 -0 -0 -1 -1 -1 -1 -2 -2 -3 -3 -4 -5 -6 -7 -8 -8 -8 -8 -9 -9 -9 -9 -9 -9 -9 -9 -8 -7 -8 -8 -7 -7 -7 -6 -6 -6 -6
0 0 -0 -0 -0 -1 -1 -1 -1 -1 -2 -2 -2 -3 -4 -5 -5 -6 -8 -8 -9 -8 -8 -8 -8 -8 -8 -8 -8 -9 -8 -9 -9 -8 -8 -8 -7 -7 -7 -6 -5 -5 -6
-0 -0 -1 -1 -1 -1 -2 -2 -2 -2 -3 -3 -3 -4 -5 -6 -7 -8 -9 -9 -9 -9 -9 -8 -8 -7 -7 -7 -7 -8 -8 -9 -10 -10 -8 -9 -9 -9 -10 -8 -6 -6 -6
Wind_Speed
6 7 7 9 9 8 7 7 7 7 6 7 8 9 9 10 11 13 14 15 14 12 11 10 10 10 10 10 10 10 11 11 12 12 12 13 13 13 13 13 13 12 12
10 8 6 7 7 9 9 8 7 6 4 5 5 7 9 10 11 12 13 14 13 12 10 10 10 10 10 10 10 10 11 11 11 12 12 12 13 13 13 13 13 13 12
14 10 6 5 8 11 11 10 7 6 4 4 4 5 7 9 10 11 12 13 12 10 9 8 9 10 11 11 11 11 11 11 11 12 12 12 13 13 13 14 13 13 13
17 12 7 6 11 12 10 5 5 4 4 4 3 2 3 7 8 10 10 11 10 9 7 7 7 8 10 11 12 12 11 10 11 11 12 12 13 14 14 15 15 15 14
18 14 8 8 13 9 5 5 3 3 3 2 2 2 2 3 6 8 8 9 9 8 6 5 5 5 7 9 11 12 11 10 10 11 12 12 13 14 15 16 16 16 16
18 15 9 10 11 7 5 5 5 3 3 2 2 3 2 1 3 4 6 7 7 7 6 5 3 2 3 6 9 10 10 10 10 11 11 12 13 15 16 17 17 17 18
18 14 9 9 8 7 7 8 5 4 3 2 3 3 3 2 1 1 3 3 4 4 5 4 2 1 3 4 6 9 10 10 10 12 12 13 15 16 18 19 19 19 19
18 16 13 11 9 8 8 7 5 4 2 2 3 3 1 2 2 2 0 2 2 3 3 1 1 4 6 6 7 10 10 10 11 13 14 15 17 19 20 21 21 20 20
18 16 15 12 11 10 9 7 7 7 4 2 2 4 4 4 2 3 3 2 2 3 2 3 5 7 8 9 10 10 10 11 13 15 16 18 20 21 23 23 23 22 22
15 17 16 14 13 10 10 8 6 5 6 4 2 2 2 3 3 1 3 2 2 2 2 3 7 10 11 11 11 11 12 14 15 17 19 21 23 24 25 25 24 24 23
11 14 15 14 13 11 10 9 7 6 4 5 4 3 2 3 2 2 2 4 3 3 3 4 6 7 11 12 12 12 14 15 17 20 22 24 25 26 26 26 26 25 25
8 11 13 12 12 11 11 10 8 8 5 5 4 4 3 3 2 3 3 3 4 4 3 4 2 4 8 11 14 17 17 18 20 22 25 26 27 27 27 27 27 27 27
8 14 13 12 12 11 10 9 9 8 7 8 5 4 3 3 3 3 3 2 3 3 3 3 2 3 5 10 16 21 18 20 22 24 27 28 28 27 27 27 27 28 28
9 12 12 12 11 12 11 9 8 7 6 7 6 5 4 3 3 3 3 2 2 3 3 4 2 0 5 15 19 20 17 21 25 27 27 27 27 27 27 27 28 28 28
9 12 12 13 12 11 11 11 8 7 7 5 6 5 4 3 3 3 3 4 3 3 3 4 3 3 11 14 16 16 16 23 27 27 26 26 26 27 27 28 28 28 28
13 14 14 14 13 12 11 10 8 7 7 5 4 5 4 3 3 3 3 3 4 5 4 4 4 5 10 13 18 19 20 25 24 25 25 26 26 27 28 28 28 28 28
15 15 15 14 13 12 11 10 8 8 7 6 5 5 4 4 3 3 3 3 4 4 7 5 4 5 6 8 14 18 19 19 19 23 26 27 27 28 28 28 29 29 29
15 15 14 14 12 12 10 10 9 7 7 6 5 4 4 3 4 4 4 4 5 5 6 8 5 5 7 8 8 10 16 18 18 24 26 27 27 28 28 28 28 28 29
15 14 14 13 12 10 9 8 8 6 6 5 4 3 3 4 4 4 5 5 5 6 5 6 7 5 6 7 9 11 11 11 17 21 23 25 26 27 27 28 29 29 30
15 14 13 12 11 10 9 8 7 6 5 4 3 1 3 4 5 6 5 7 6 6 5 6 7 7 7 8 7 8 11 8 10 14 20 22 24 25 27 28 29 30 30
15 14 14 12 11 9 8 8 6 5 4 3 1 1 2 4 7 6 6 5 5 4 5 5 7 9 10 8 9 8 13 12 10 11 10 9 11 11 16 25 27 28 29
15 15 13 12 9 7 10 9 6 4 3 1 1 3 4 5 7 9 10 12 11 8 6 5 8 11 12 11 10 11 12 14 11 4 7 12 10 13 10 13 25 29 30
14 13 11 10 9 9 9 7 6 3 2 2 2 3 3 4 6 5 9 13 12 15 15 12 12 12 13 13 13 14 13 14 16 11 13 17 11 14 11 18 28 30 32
11 10 9 8 7 7 8 6 6 4 2 2 1 1 3 5 6 8 7 7 7 8 12 11 10 12 13 12 12 14 14 13 13 11 9 14 14 14 14 10 26 30 30
9 8 6 7 6 6 7 5 5 2 0 2 3 3 5 5 12 14 9 7 8 9 15 20 21 20 23 24 19 11 9 11 16 13 7 6 8 11 12 13 16 24 24
8 7 6 5 5 4 5 4 4 2 2 3 3 4 8 10 14 15 9 8 10 10 10 11 12 15 14 16 19 10 7 10 12 9 4 4 7 8 8 6 8 9 14
Wind_Direction
175 175 175 172 172 162 145 129 119 112 101 89 89 103 117 120 112 104 100 99 98 94 87 77 66 56 46 39 33 28 24 19 15 13 11 8 5 1 356 352 349 346 345
177 174 167 169 167 157 143 132 127 117 99 90 84 104 124 130 124 117 111 106 103 98 89 76 64 52 42 34 27 23 21 17 14 10 8 5 1 357 352 348 343 339 334
176 170 163 160 158 147 133 122 114 102 89 80 78 101 126 139 139 132 126 121 116 110 99 83 66 53 40 28 19 15 14 12 10 7 5 2 359 354 350 345 339 334 329
170 162 159 157 151 142 132 122 118 97 82 82 85 86 119 145 152 152 147 145 141 135 122 101 77 57 40 26 15 6 4 5 3 2 360 357 354 350 345 339 335 330 324
165 161 158 153 147 136 128 127 112 120 106 97 107 111 119 146 161 165 169 173 169 161 150 130 100 70 40 22 12 1 353 355 357 355 352 350 347 344 339 333 327 323 318
164 158 154 150 145 133 131 127 119 97 101 110 87 77 63 140 161 172 182 186 189 183 170 153 134 93 25 9 3 354 346 342 346 345 341 339 338 336 332 326 320 315 311
165 159 155 152 150 148 150 140 121 107 79 82 97 62 21 30 127 181 189 182 191 187 172 168 185 256 312 335 342 339 334 329 329 331 329 327 327 328 326 320 315 311 308
167 165 160 162 156 146 146 148 136 122 99 74 128 119 80 344 334 5 324 169 138 108 101 92 316 306 301 298 301 318 320 318 317 319 319 319 319 320 319 315 311 308 304
170 167 164 161 160 158 163 162 151 142 143 94 91 143 153 201 260 328 11 57 100 96 69 30 355 335 321 305 298 296 299 305 307 308 311 314 315 315 313 310 307 304 302
170 167 165 163 163 160 160 163 155 147 140 143 112 76 117 141 154 264 326 355 27 82 32 352 339 338 342 335 324 311 306 306 304 305 308 309 310 310 308 306 303 302 301
169 167 165 163 162 160 158 152 146 142 138 148 150 136 109 79 100 148 257 310 329 315 328 320 328 349 3 9 360 342 326 316 310 308 308 307 308 307 305 304 302 301 300
166 168 167 163 161 158 156 151 145 140 135 132 132 134 141 144 154 156 206 260 283 291 301 302 330 5 22 21 3 346 335 324 316 310 307 306 305 305 304 303 301 300 298
173 174 166 162 159 153 148 143 141 138 136 135 135 126 125 131 138 144 165 233 273 290 301 303 261 9 39 360 346 333 326 320 314 310 306 304 304 304 303 301 298 296 294
171 165 158 154 151 148 145 140 137 133 132 133 136 134 131 135 137 146 156 163 282 295 285 275 299 273 346 344 330 322 319 316 312 307 304 304 303 302 299 297 295 294 293
151 152 151 148 148 145 141 138 138 132 133 133 138 138 134 137 135 139 144 156 184 260 278 270 287 290 331 320 315 317 316 312 306 304 304 303 301 299 298 296 294 293 293
152 151 150 147 144 140 138 134 133 135 133 136 142 142 143 153 152 155 163 173 180 201 247 252 252 280 300 306 311 314 305 306 305 303 301 301 300 299 297 296 296 295 294
150 151 150 148 145 141 139 139 139 142 140 140 144 157 171 170 173 184 187 195 207 204 249 265 252 276 283 287 301 300 300 296 294 300 301 300 299 298 298 297 296 294 293
147 147 145 143 142 140 140 143 145 145 144 147 152 161 184 187 195 202 208 223 231 225 238 275 278 276 276 284 286 290 299 297 294 297 299 299 299 298 297 296 295 295 295
141 140 139 138 136 134 131 130 129 129 129 134 145 175 204 203 218 224 229 237 242 250 243 269 287 280 280 287 290 289 286 284 289 295 298 298 296 296 296 296 297 297 296
134 131 126 123 122 119 116 113 112 110 106 101 102 167 224 220 227 233 239 243 249 258 263 270 285 293 293 289 285 294 300 286 289 294 292 291 292 294 294 294 294 294 292
119 115 112 108 106 105 107 108 107 106 103 93 61 328 279 253 246 252 254 246 241 249 263 272 288 299 300 301 299 297 301 302 291 282 280 279 284 281 284 287 289 288 287
106 107 108 107 101 104 114 113 113 107 104 81 350 327 307 289 289 300 299 296 291 284 283 281 291 295 296 295 295 297 301 304 302 275 288 295 287 286 282 277 284 286 287
102 103 105 105 104 112 119 121 121 120 93 43 360 341 332 325 332 306 296 298 295 295 295 295 292 288 289 290 291 292 291 292 294 297 300 295 289 286 284 284 288 289 289
103 104 106 112 119 136 142 142 128 106 79 39 10 337 307 303 305 300 279 277 269 277 285 285 274 274 276 277 276 286 293 295 290 284 277 286 291 288 288 280 286 286 286
107 110 121 134 146 160 162 153 140 128 118 299 294 302 312 299 308 310 304 291 285 281 290 291 290 290 294 298 300 299 295 298 298 296 275 272 285 294 291 281 278 282 284
118 124 129 145 157 172 185 180 165 176 249 286 295 298 315 316 311 311 303 293 292 289 285 290 294 296 294 292 296 286 275 287 294 296 257 255 287 306 299 262 255 270 280
Height
1529 1530 1532 1533 1534 1535 1536 1537 1537 1537 1537 1536 1536 1535 1534 1534 1533 1533 1533 1533 1533 1532 1532 1532 1531 1530 1530 1529 1528 1527 1526 1525 1524 1523 1522 1522 1521 1520 1520 1520 1520 1520 1520
1526 1528 1529 1531 1532 1534 1535 1535 1536 1536 1535 1535 1534 1533 1533 1532 1532 1532 1532 1532 1532 1531 1531 1531 1530 1529 1528 1527 1526 1525 1524 1522 1521 1520 1519 1518 1518 1517 1516 1516 1515 1515 1515
1524 1525 1527 1529 1530 1532 1533 1533 1534 1534 1534 1533 1533 1532 1531 1531 1531 1531 1531 1531 1530 1530 1530 1529 1529 1528 1527 1525 1524 1523 1521 1520 1518 1517 1516 1515 1514 1513 1512 1512 1511 1511 1510
1521 1523 1525 1526 1528 1529 1531 1532 1532 1532 1532 1532 1531 1530 1530 1529 1529 1529 1529 1529 1529 1529 1528 1528 1527 1526 1525 1523 1522 1520 1518 1517 1515 1514 1512 1511 1510 1509 1508 1507 1507 1506 1506
1518 1520 1522 1524 1526 1527 1529 1530 1530 1531 1530 1530 1529 1529 1528 1528 1528 1528 1528 1528 1528 1527 1526 1526 1525 1524 1522 1521 1519 1517 1515 1513 1511 1510 1508 1507 1506 1505 1504 1503 1502 1502 1501
1515 1518 1520 1522 1524 1525 1526 1527 1528 1528 1528 1528 1528 1527 1526 1526 1526 1526 1526 1526 1526 1525 1524 1524 1522 1521 1519 1517 1515 1513 1511 1509 1508 1506 1504 1503 1502 1500 1499 1498 1497 1496 1496
1511 1514 1516 1519 1521 1523 1524 1525 1526 1526 1526 1526 1526 1525 1525 1525 1524 1524 1524 1524 1523 1523 1522 1520 1519 1518 1516 1514 1512 1510 1507 1505 1504 1502 1500 1499 1497 1496 1494 1493 1492 1491 1490
1507 1509 1512 1515 1517 1520 1521 1522 1523 1524 1524 1524 1524 1523 1523 1524 1522 1522 1522 1521 1521 1520 1519 1517 1516 1514 1512 1509 1507 1505 1503 1501 1499 1498 1496 1495 1493 1491 1489 1488 1486 1485 1484
1501 1504 1507 1510 1513 1516 1517 1519 1520 1521 1521 1521 1521 1521 1520 1519 1520 1519 1519 1518 1517 1517 1516 1515 1513 1510 1507 1505 1502 1500 1498 1496 1494 1493 1492 1490 1488 1486 1484 1482 1481 1479 1478
1495 1499 1502 1505 1508 1511 1514 1516 1517 1518 1518 1518 1518 1518 1518 1517 1517 1516 1516 1515 1514 1514 1513 1512 1509 1506 1503 1500 1498 1495 1493 1491 1489 1488 1487 1485 1483 1480 1478 1476 1474 1473 1471
1489 1493 1496 1500 1503 1506 1509 1511 1513 1514 1515 1515 1515 1514 1514 1513 1513 1513 1512 1512 1511 1511 1509 1507 1505 1501 1498 1496 1493 1490 1487 1485 1484 1482 1480 1478 1476 1473 1471 1468 1467 1465 1463
1482 1486 1490 1494 1497 1500 1503 1506 1508 1510 1511 1511 1511 1510 1510 1509 1509 1508 1507 1506 1505 1504 1504 1502 1499 1496 1493 1490 1487 1485 1481 1479 1476 1474 1472 1470 1467 1465 1462 1460 1458 1456 1454
1474 1478 1483 1487 1491 1495 1498 1501 1504 1505 1506 1507 1507 1506 1506 1505 1504 1503 1502 1501 1498 1496 1495 1495 1493 1490 1487 1484 1482 1479 1475 1472 1469 1466 1463 1461 1458 1455 1453 1450 1449 1447 1445
1467 1471 1476 1481 1485 1489 1492 1496 1499 1501 1502 1502 1502 1502 1501 1500 1500 1499 1498 1497 1493 1490 1489 1488 1487 1484 1481 1478 1475 1471 1467 1464 1460 1457 1454 1451 1448 1446 1443 1441 1440 1438 1436
1461 1466 1470 1475 1480 1483 1487 1491 1494 1496 1498 1498 1499 1498 1497 1496 1495 1494 1493 1492 1490 1485 1481 1480 1480 1478 1475 1471 1467 1463 1459 1455 1452 1449 1445 1442 1440 1437 1435 1433 1431 1429 1427
1456 1460 1464 1469 1474 1479 1483 1487 1490 1492 1494 1494 1494 1494 1493 1492 1491 1490 1488 1486 1484 1481 1476 1473 1473 1471 1467 1464 1460 1455 1451 1447 1444 1441 1437 1434 1432 1429 1427 1424 1422 1420 1418
1450 1455 1460 1465 1470 1474 1479 1483 1486 1488 1490 1490 1490 1489 1489 1488 1486 1485 1483 1481 1479 1476 1471 1466 1466 1463 1460 1456 1452 1448 1444 1440 1436 1433 1430 1426 1424 1421 1418 1415 1413 1410 1408
1446 1451 1456 1461 1467 1471 1475 1479 1482 1485 1485 1485 1485 1485 1484 1483 1481 1480 1478 1475 1473 1470 1465 1460 1457 1455 1452 1449 1444 1440 1436 1433 1429 1425 1422 1418 1415 1412 1409 1406 1404 1401 1398
1442 1447 1453 1459 1464 1469 1473 1477 1480 1481 1481 1481 1481 1480 1479 1478 1476 1474 1472 1469 1467 1464 1460 1455 1450 1448 1444 1441 1436 1432 1428 1425 1421 1417 1414 1410 1407 1404 1401 1398 1395 1391 1388
1439 1445 1452 1458 1464 1468 1472 1475 1477 1478 1477 1476 1476 1475 1474 1473 1471 1469 1466 1463 1460 1457 1454 1450 1445 1441 1437 1434 1430 1425 1419 1416 1412 1410 1406 1403 1399 1396 1393 1389 1385 1382 1378
1439 1445 1451 1457 1463 1467 1471 1473 1474 1474 1473 1472 1471 1470 1469 1468 1465 1463 1460 1457 1455 1451 1448 1444 1440 1435 1431 1428 1424 1419 1413 1407 1403 1401 1397 1393 1390 1385 1383 1380 1376 1372 1368
1439 1446 1452 1459 1463 1467 1469 1471 1471 1470 1469 1468 1467 1466 1464 1462 1460 1457 1455 1452 1450 1447 1443 1440 1435 1431 1426 1422 1418 1413 1408 1402 1395 1394 1389 1383 1382 1376 1373 1369 1365 1361 1358
1443 1449 1455 1459 1463 1465 1467 1468 1467 1466 1465 1464 1463 1461 1459 1456 1454 1451 1448 1446 1443 1441 1439 1436 1430 1425 1421 1417 1413 1408 1404 1398 1392 1388 1383 1373 1372 1367 1363 1359 1356 1352 1348
1446 1451 1455 1458 1461 1463 1464 1464 1464 1463 1462 1461 1458 1455 1453 1450 1448 1445 1442 1439 1437 1435 1432 1428 1424 1419 1416 1412 1409 1404 1399 1392 1385 1381 1378 1368 1361 1357 1352 1349 1346 1343 1339
1448 1452 1455 1458 1460 1461 1462 1462 1461 1460 1459 1457 1454 1451 1448 1445 1442 1439 1437 1434 1431 1428 1426 1422 1418 1415 1411 1408 1404 1398 1392 1386 1376 1371 1370 1363 1354 1348 1340 1336 1335 1333 1329
1450 1453 1456 1458 1459 1460 1460 1459 1458 1456 1454 1452 1449 1446 1443 1440 1437 1435 1433 1429 1425 1421 1418 1414 1411 1407 1404 1400 1397 1393 1387 1380 1372 1364 1359 1356 1348 1343 1330 1322 1322 1321 1318